Location: ?????????
(38.5999°N, 22.7695°E)
Time: 15:59:03
(UTC+00:00)

ATLAS CENTAUR R/B - Pass Details

Date: 23 May 2024
Orbit: 208 x 2369 km, 57.2° (Epoch: 24 June)

Event Time Altitude Azimuth Distance (km) Brightness Sun altitude
Rises 00:15:40 0° 315° (NW) 5,912 7.2 -25.4°
Reaches altitude 10° 00:20:10 10° 309° (NW) 4,687 6.6 -25.0°
Maximum altitude 00:30:57 37° 249° (WSW) 2,341 4.5 -23.9°
Enters shadow 00:32:18 36° 232° (SW) 2,286 4.4 -23.7°
